RH
53 63 71 82 86 73 54 51 54 56 62 68 69 68 66 69 76 84 92 98 99 100 100 100 100 99 101 100 92 88 93 94 86 78 72 65 63 60 52 48 44 39 37 33 29 26 22 20 19 19 21 24 30 33 33 36 39 39 44 50 51 54 58 59 58 54 51 48 44 39 37 35 35 34 32 29 25 22 20 19 19 22 23 22 24 24 22
54 59 63 65 65 62 57 59 62 62 67 71 73 75 78 84 92 96 99 100 100 101 101 100 100 100 98 91 82 86 96 96 88 80 72 65 62 57 51 48 42 38 36 32 28 26 22 20 20 19 21 25 29 33 34 36 37 37 42 47 48 50 54 58 59 57 53 50 46 42 39 37 36 35 35 33 30 26 22 20 19 20 20 21 25 25 24
57 57 58 55 54 60 66 75 82 83 84 87 91 94 92 92 97 98 100 101 100 101 100 99 102 101 93 86 87 96 99 93 87 85 77 64 57 52 49 46 42 38 35 32 29 25 21 20 19 19 24 29 32 35 36 36 35 38 46 50 49 48 52 56 58 57 55 51 48 45 41 40 38 37 37 37 35 31 27 23 21 21 19 20 24 24 26
56 60 63 61 59 67 76 88 98 99 99 98 99 100 91 81 79 81 89 95 96 100 101 99 97 86 75 78 90 99 100 91 85 84 76 61 52 49 45 42 40 37 34 31 28 24 22 20 19 20 26 32 37 39 39 37 37 40 47 52 53 51 51 55 58 58 57 54 52 49 46 43 41 39 39 40 39 37 33 28 25 24 22 20 20 22 28
54 60 68 72 77 84 89 92 93 93 97 98 100 102 93 79 67 61 69 80 86 97 103 96 84 71 62 70 83 92 93 87 84 85 72 52 44 43 41 38 36 33 31 29 26 23 21 19 19 22 27 35 40 42 43 42 41 42 46 51 55 53 50 54 58 60 59 58 56 53 50 48 46 44 43 42 42 41 38 35 32 28 24 22 22 21 28
60 60 64 69 75 80 83 85 86 86 88 90 96 103 100 91 77 61 62 72 78 91 103 98 90 83 74 74 85 94 91 88 93 93 76 57 48 42 36 34 33 30 27 26 24 23 20 19 21 25 30 36 38 39 42 45 45 44 45 49 52 53 52 53 57 61 61 60 58 56 54 52 52 52 50 47 46 43 41 39 37 34 31 29 27 23 25
71 66 66 68 70 75 84 93 98 97 94 89 90 94 96 99 94 74 62 65 69 81 97 102 100 97 87 82 92 100 98 98 100 91 77 65 55 48 42 36 31 28 26 24 22 21 20 19 22 28 33 36 38 38 39 41 43 43 45 48 49 52 55 55 56 60 63 62 60 58 56 55 56 58 57 55 52 48 46 43 39 38 37 35 32 29 26
88 81 78 79 80 85 94 101 101 100 100 97 92 89 88 92 96 84 68 67 71 76 89 98 101 103 98 89 93 101 100 98 92 84 81 72 59 54 51 41 35 32 29 27 25 23 23 24 27 32 36 39 40 42 42 41 42 43 45 47 47 49 54 55 56 60 63 63 63 61 60 58 58 61 61 60 59 56 51 48 44 41 39 38 37 35 31
99 96 94 94 94 97 100 100 98 98 99 100 98 95 88 81 79 80 74 72 73 74 80 88 92 101 104 93 92 101 100 92 83 79 84 80 69 64 56 48 46 42 36 34 33 32 30 31 35 38 40 42 45 45 46 45 44 45 45 46 47 48 51 55 58 60 63 65 66 64 63 62 60 61 64 64 64 62 57 53 49 46 43 41 39 38 36
99 99 100 101 101 101 98 95 98 100 98 98 99 99 96 85 75 72 70 67 67 66 70 75 78 91 103 99 98 103 101 95 89 81 79 81 80 73 64 58 55 51 50 48 43 43 42 39 42 45 43 46 51 53 54 52 49 50 48 47 48 48 50 55 59 62 65 69 73 73 73 72 65 59 61 64 65 64 61 57 54 51 49 46 44 43 44
95 95 98 101 99 95 89 85 91 99 99 98 99 99 100 97 89 81 71 65 66 66 68 70 70 78 94 101 101 102 100 100 98 86 79 83 84 77 72 70 64 64 71 67 53 51 52 48 49 51 50 54 60 63 66 62 56 53 51 51 50 48 51 57 62 69 73 76 81 85 82 75 67 60 59 62 67 69 68 64 59 55 53 51 51 51 50
87 86 90 96 97 95 91 87 89 97 100 99 96 95 96 97 97 95 84 72 68 65 65 69 66 69 87 100 101 102 101 100 98 90 84 86 86 81 79 78 75 76 80 74 63 59 56 56 57 58 63 71 72 71 74 72 64 57 53 54 52 50 53 60 68 80 87 86 88 90 79 65 62 66 65 62 64 69 70 67 62 57 54 53 53 54 55
81 86 92 97 100 99 99 96 94 95 100 101 96 93 94 92 93 96 86 71 66 66 64 67 68 68 79 91 94 97 100 97 95 94 91 89 87 85 83 80 78 80 78 70 64 61 59 61 63 68 78 85 81 78 80 78 69 59 53 54 54 52 53 57 68 84 94 94 89 83 76 70 67 68 69 68 69 70 69 69 65 60 59 58 57 58 59
73 81 90 95 100 101 100 100 100 97 98 101 100 98 97 93 93 96 84 64 59 64 63 64 68 69 71 78 84 91 99 100 99 98 96 91 86 83 81 79 78 80 79 71 62 60 60 63 67 73 78 80 83 86 84 79 72 63 55 53 52 52 53 56 67 82 87 89 89 84 81 83 79 71 68 72 77 76 73 74 72 65 62 61 61 61 62
74 72 76 82 91 100 101 100 101 100 98 100 102 101 99 95 95 99 91 65 49 54 61 61 62 64 67 73 79 84 92 98 99 99 98 95 87 78 77 80 79 78 78 72 64 61 65 71 79 86 86 82 85 89 86 82 77 67 59 56 52 51 53 58 71 84 83 82 89 92 86 81 81 81 77 75 78 78 74 72 69 64 61 61 62 64 65
82 72 67 68 76 90 100 101 100 101 100 99 101 101 99 99 99 101 98 78 51 44 55 61 60 57 56 60 68 74 78 84 88 90 92 95 90 80 76 77 77 77 77 72 65 63 69 79 89 97 99 94 92 94 93 91 87 75 64 60 56 50 53 65 80 91 92 86 84 84 82 83 88 94 94 86 79 76 71 63 56 56 60 64 67 71 73
84 79 68 63 66 76 90 99 100 100 101 100 100 100 99 100 101 99 97 89 64 42 41 49 54 55 51 48 52 57 61 67 73 74 78 84 86 82 80 80 77 75 76 74 71 67 70 79 88 93 96 95 94 98 98 96 97 91 76 66 59 50 52 71 87 91 93 96 91 80 80 88 96 101 102 96 85 76 65 52 44 51 63 70 73 77 77
75 83 75 65 63 69 78 89 95 96 97 99 100 101 100 99 100 98 94 90 78 59 48 48 48 44 43 42 42 43 46 51 55 61 67 71 72 73 78 83 82 78 76 76 77 75 73 76 83 87 90 92 93 97 97 94 99 101 87 74 65 53 50 67 87 90 87 91 94 88 85 92 99 102 98 91 80 67 53 42 43 54 65 69 70 71 69
58 77 82 71 64 67 73 79 85 86 85 87 91 97 102 101 100 99 95 90 82 73 73 79 74 60 54 53 46 38 37 39 43 52 59 63 66 67 70 75 77 78 77 77 78 79 78 78 77 76 79 83 86 90 93 93 97 99 93 84 74 61 55 65 85 98 96 91 91 89 84 84 87 87 81 72 67 61 54 54 59 63 65 65 64 62 59
44 62 79 77 68 67 71 74 77 79 78 75 75 80 90 97 101 102 99 93 84 76 79 89 90 82 76 72 62 47 39 39 44 49 55 61 63 60 64 74 76 76 81 85 83 82 83 85 83 76 72 72 75 78 83 87 90 92 92 91 83 70 63 66 79 93 99 99 93 81 71 66 65 64 61 61 63 64 63 64 62 58 58 59 58 57 56
43 49 68 79 73 68 71 73 73 74 75 74 70 69 71 78 86 95 101 101 93 88 87 85 80 74 71 75 79 72 58 53 54 58 69 80 72 59 66 82 82 77 83 88 86 83 82 84 87 85 79 74 71 69 69 73 78 81 84 88 87 78 68 68 72 76 80 84 79 68 65 68 67 64 64 67 68 65 63 61 57 53 55 55 53 55 56
49 47 56 71 75 70 69 71 72 72 72 72 72 70 67 66 68 75 87 98 101 99 97 91 84 79 77 80 86 82 69 64 66 71 85 98 86 67 70 79 76 76 83 83 80 81 82 83 88 91 92 89 80 70 61 58 62 71 76 81 83 78 72 70 71 69 66 66 64 62 67 73 71 70 73 77 76 71 66 63 59 56 56 55 54 54 53
53 52 50 58 69 73 69 66 69 71 72 73 72 70 67 66 64 62 65 76 90 99 102 100 96 94 93 94 93 87 73 64 66 75 88 96 86 71 69 69 65 70 80 79 75 76 80 87 91 94 98 99 91 77 63 52 50 55 63 71 77 78 74 71 69 67 62 60 63 69 74 75 77 80 83 86 85 78 71 67 63 58 55 53 52 53 53
49 55 53 51 59 71 73 67 65 67 69 71 73 73 69 64 63 62 59 59 67 78 88 98 101 100 99 96 95 94 82 65 63 74 84 87 81 69 63 62 59 61 69 74 72 71 76 84 88 89 90 90 88 83 76 67 61 59 63 70 73 72 72 72 72 71 69 69 75 82 85 85 87 87 88 91 91 82 73 69 64 58 55 54 53 53 54
45 51 57 54 53 63 73 75 70 67 66 67 69 72 73 67 61 60 59 56 53 52 59 72 83 93 102 99 91 93 94 87 87 88 83 79 76 69 61 58 54 52 58 66 67 66 69 75 78 78 81 83 83 82 81 82 82 78 77 80 76 68 68 71 74 78 80 81 85 89 91 92 91 88 87 89 88 81 74 69 65 64 68 70 66 63 62
47 46 54 59 56 58 69 78 79 74 70 68 66 67 69 70 65 58 53 52 50 44 43 47 51 65 86 98 96 96 97 96 97 95 88 83 79 70 62 57 54 53 56 60 61 61 62 65 66 70 75 80 82 82 79 82 85 82 80 82 79 75 74 75 76 82 87 89 91 91 90 89 89 87 85 84 84 82 77 69 65 71 82 84 77 72 70
53 47 48 57 60 59 63 71 78 78 72 68 66 64 64 68 69 60 51 47 45 40 37 37 35 38 51 66 80 93 99 97 92 90 89 90 87 81 75 70 64 60 56 55 55 53 53 56 62 68 72 75 80 83 81 79 81 81 81 81 79 78 82 84 84 89 92 91 89 85 81 82 84 83 79 76 77 79 77 71 67 70 78 80 77 73 71
56 53 48 51 60 63 61 62 67 73 72 67 63 60 61 66 69 62 52 46 43 37 32 29 28 29 28 29 41 63 84 98 100 96 91 89 90 93 94 92 85 75 64 60 61 59 56 59 65 71 74 75 81 87 84 81 83 82 79 78 77 75 78 80 81 85 87 83 77 72 70 73 76 75 71 69 68 69 70 69 66 65 67 68 69 73 77
50 57 53 50 55 63 65 62 62 67 71 69 64 59 57 62 67 63 53 45 41 37 32 26 23 24 24 21 20 27 44 65 83 93 94 91 89 92 96 99 99 93 85 82 84 82 77 76 77 79 80 79 86 92 90 89 94 89 79 78 80 78 77 78 79 81 82 79 76 74 72 72 72 70 68 66 63 61 61 61 63 67 71 72 74 79 83
37 51 57 54 53 60 69 69 69 71 73 71 67 62 58 62 67 64 56 46 39 35 32 29 24 20 20 22 21 18 19 26 38 50 60 64 68 78 87 91 94 95 93 93 95 94 94 93 92 93 92 89 92 98 96 94 97 93 84 83 87 88 88 88 87 85 84 82 80 78 77 77 77 75 73 69 64 61 63 69 76 81 83 81 79 79 80
24 38 53 57 55 58 69 76 77 78 77 73 69 66 64 66 67 64 59 51 42 34 30 28 25 20 16 16 17 15 14 14 16 19 23 25 30 41 54 64 72 77 80 83 87 91 96 98 98 98 97 92 90 92 93 91 92 90 86 86 90 93 94 94 92 89 87 85 82 81 80 79 77 76 76 76 75 73 75 80 85 89 89 87 82 77 74
17 25 42 56 58 58 66 78 83 80 77 76 72 69 68 70 68 64 61 56 47 38 31 26 23 18 12 9 9 8 7 8 10 11 12 12 12 15 20 27 36 43 46 49 53 59 68 78 84 88 89 87 84 82 82 82 81 80 79 78 80 82 84 85 85 84 81 79 79 80 80 78 75 75 76 79 82 83 84 86 88 90 92 92 90 85 78
20 18 28 45 57 59 62 73 82 82 78 77 74 72 72 74 72 66 63 59 52 42 33 26 22 16 8 4 4 4 3 4 4 5 6 6 6 7 7 8 11 14 16 17 18 21 27 36 46 54 62 66 69 70 71 71 71 69 68 68 67 68 70 73 74 73 72 70 70 71 73 73 71 71 72 74 75 77 77 78 79 79 79 79 79 77 73
27 19 19 30 47 58 62 67 76 82 81 78 76 78 80 78 74 69 65 61 55 46 36 27 20 13 7 4 4 3 3 3 3 3 4 4 4 4 4 4 4 4 5 5 5 6 7 9 12 18 24 30 34 38 41 45 47 48 49 49 49 51 55 60 64 66 66 66 66 66 67 66 66 65 64 63 62 62 60 58 56 54 53 52 50 49 49
36 24 18 21 33 50 62 65 69 77 83 80 77 80 85 82 76 72 69 64 57 49 38 28 20 13 6 4 4 4 4 3 4 4 4 4 4 4 4 4 4 3 3 4 4 3 4 4 4 5 6 8 10 11 12 14 17 19 21 22 23 25 28 33 38 43 49 54 59 62 62 61 61 59 57 54 52 49 45 41 36 31 29 27 26 25 26
46 31 22 18 22 37 56 66 69 72 79 82 79 79 82 84 80 76 72 66 57 48 39 30 21 14 8 4 4 5 4 4 4 4 4 4 4 4 4 4 5 4 4 4 4 4 4 4 5 5 5 6 6 6 6 6 6 6 7 8 9 11 13 14 16 19 23 29 38 44 48 49 48 46 44 42 37 31 26 22 18 15 13 12 12 12 12
54 39 27 20 19 26 42 62 71 72 73 79 82 80 78 80 80 78 74 64 52 44 39 31 22 15 9 5 4 5 5 5 5 4 4 4 4 4 5 6 6 5 6 6 6 6 7 7 7 8 9 10 10 9 8 8 7 7 7 7 6 7 8 9 10 11 12 15 19 24 27 29 29 27 25 22 17 14 12 10 9 8 8 8 8 8 9
59 47 33 24 20 21 30 48 66 73 72 74 81 83 80 77 78 80 77 64 49 41 38 31 24 17 11 6 5 6 5 5 6 6 5 5 4 4 5 6 7 7 7 8 9 8 8 9 10 11 11 12 11 10 10 10 10 9 9 9 9 8 8 8 8 9 9 10 11 12 13 14 14 13 12 11 10 10 10 10 10 10 10 10 11 10 11
62 53 41 29 22 21 25 34 51 67 74 74 77 82 82 78 78 82 80 65 48 41 39 33 25 19 13 7 6 8 7 5 6 6 6 6 5 5 4 5 6 6 7 8 9 9 9 11 12 12 12 12 11 10 11 11 11 10 10 10 10 11 11 11 10 10 11 11 11 11 12 12 12 11 11 11 12 13 13 12 12 11 10 10 11 12 13
63 57 48 36 25 22 24 26 34 53 70 76 76 78 82 82 81 84 84 72 54 43 40 36 28 22 16 10 7 8 8 7 6 7 7 7 6 6 5 5 5 6 6 6 6 7 8 10 11 11 11 11 10 11 11 11 10 9 9 10 10 11 11 11 12 12 13 13 14 14 15 16 16 16 15 14 14 14 14 13 11 11 12 12 13 15 17
63 60 53 43 31 25 24 24 26 37 55 71 77 78 82 84 83 84 88 85 71 55 44 38 32 25 20 14 9 8 9 8 6 6 7 7 7 7 7 6 6 5 5 5 5 6 6 7 8 8 9 9 9 10 10 9 9 8 9 9 11 11 12 12 12 12 12 12 12 13 14 15 16 16 15 16 16 16 15 15 13 13 15 17 19 21 24
62 60 57 49 39 29 24 25 26 28 39 56 71 78 82 84 84 86 92 96 89 74 57 44 34 28 23 17 11 9 8 8 7 7 7 7 8 8 7 7 7 6 6 5 5 5 5 5 5 5 6 6 6 7 6 6 6 7 8 9 9 9 9 8 7 7 7 6 7 8 9 10 12 13 14 15 17 18 18 17 17 16 17 20 22 24 24
61 61 59 54 46 36 29 27 27 27 30 40 55 70 80 83 84 89 96 99 95 84 69 53 41 33 27 22 18 14 10 8 7 7 7 7 8 8 8 8 8 7 7 7 7 6 6 6 6 6 5 5 5 5 5 4 5 5 5 6 6 6 5 4 3 3 3 3 4 4 5 6 8 11 13 15 18 19 19 18 18 19 19 21 24 24 24
60 61 60 57 51 43 35 31 29 30 30 32 39 55 71 81 85 88 92 94 92 84 73 63 55 47 38 31 27 22 17 13 10 7 6 7 8 7 8 9 9 8 8 9 9 8 8 8 8 8 8 8 7 7 7 7 7 7 7 7 6 6 6 6 5 4 3 3 3 3 4 6 9 12 14 16 17 18 18 18 20 21 22 23 25 27 28
60 59 59 59 55 48 41 35 33 32 32 31 32 40 54 69 79 83 83 85 85 82 76 72 69 63 55 48 42 36 30 25 18 11 7 6 7 7 7 8 9 9 9 10 10 10 10 10 10 10 11 11 11 11 12 11 11 10 11 11 11 11 10 10 9 8 7 6 5 4 3 4 5 8 10 12 13 14 16 17 20 22 24 24 25 26 28
68 64 60 59 58 54 47 40 36 34 32 32 32 35 41 52 65 75 78 79 80 81 78 76 74 72 67 63 60 57 52 45 36 25 14 8 6 7 7 8 8 9 10 11 11 11 11 11 12 12 12 13 13 13 14 14 14 14 14 14 14 14 13 12 12 11 11 10 10 9 8 6 5 4 5 6 7 8 11 12 14 16 19 19 18 17 17
81 76 69 62 59 57 53 46 40 36 34 33 34 35 37 42 51 62 71 75 77 79 80 79 78 77 74 71 71 73 72 66 58 47 34 20 11 7 6 6 7 8 9 10 11 11 11 11 12 12 12 13 13 13 14 14 15 15 15 15 15 15 14 13 12 12 11 11 11 11 12 12 11 9 7 6 4 4 5 6 7 8 9 9 8 7 7
92 88 80 70 64 60 56 51 45 39 35 34 35 35 35 37 42 51 60 68 72 76 79 81 81 80 77 74 75 77 77 74 71 66 58 47 36 24 13 7 6 7 8 9 10 10 10 11 11 12 11 11 12 12 12 12 13 13 13 14 14 15 15 15 14 13 13 12 11 11 11 12 12 13 13 12 10 8 6 4 4 4 4 5 4 4 4
98 97 90 81 73 66 61 56 52 45 38 35 35 34 34 35 37 41 48 57 66 72 76 79 80 82 81 78 77 76 75 73 73 71 69 65 60 51 39 26 15 8 6 6 8 9 9 10 11 11 11 11 10 10 9 9 9 9 10 11 12 13 14 14 15 15 15 14 13 13 12 12 11 11 11 13 13 13 12 10 8 6 4 4 4 4 4
97 99 96 89 80 73 66 61 57 52 45 38 35 34 33 33 34 36 40 48 58 67 71 73 75 78 79 79 78 77 75 72 69 68 67 67 66 64 61 54 42 28 17 10 7 6 8 9 10 10 11 11 10 10 9 8 7 7 7 7 8 9 11 12 14 15 15 15 15 15 14 13 12 11 10 10 11 12 14 14 14 13 11 8 6 5 4
93 97 98 93 85 78 72 66 61 58 52 45 38 34 32 32 33 34 36 41 48 57 63 66 68 70 73 74 75 76 75 72 68 66 65 65 64 64 67 68 64 54 42 31 21 13 8 6 7 9 10 10 10 10 9 8 8 7 7 6 6 7 8 9 10 12 14 15 16 16 14 13 12 12 12 12 11 11 11 12 13 15 15 15 13 11 9
89 95 97 95 90 85 80 74 69 65 60 54 46 39 34 32 32 33 35 38 43 48 53 57 60 63 66 69 71 71 71 70 68 67 67 66 66 68 70 69 64 58 55 52 46 37 24 13 7 6 7 8 9 10 10 10 9 8 8 7 7 7 7 7 7 9 11 12 14 15 15 14 14 13 14 14 14 13 12 11 10 10 11 13 14 14 14
Wind_Speed
31 28 27 26 26 29 34 35 34 31 25 20 18 18 20 23 27 30 32 32 29 25 26 28 27 27 27 29 33 35 31 27 30 33 34 33 33 33 34 36 37 37 37 37 38 38 39 40 41 41 42 42 41 41 40 39 40 41 41 41 42 42 41 41 41 40 40 40 40 39 40 41 41 42 43 44 44 44 46 46 45 47 48 48 48 48 46
34 34 34 34 35 38 38 37 37 37 35 32 29 27 26 27 27 25 23 21 20 23 27 27 26 26 28 30 32 31 26 25 30 31 29 29 30 31 32 33 35 36 36 36 37 38 39 39 40 41 41 41 41 41 40 40 40 40 39 40 41 42 41 41 42 41 41 42 42 41 42 44 44 43 43 44 44 44 45 46 47 49 49 48 51 51 48
33 36 37 38 38 36 35 35 34 33 32 31 30 28 26 23 21 19 16 15 16 20 23 23 25 28 30 32 32 30 25 27 30 27 25 27 28 29 30 30 32 33 34 35 35 36 38 39 40 40 39 40 40 40 40 39 39 38 37 37 39 40 40 41 42 43 43 44 44 44 44 45 45 43 42 43 44 45 45 46 48 49 48 49 51 52 51
28 31 33 33 31 30 30 31 31 30 28 26 26 25 24 22 19 18 17 17 16 18 19 21 25 28 30 32 32 30 27 29 29 25 24 26 27 28 29 29 30 31 32 33 33 35 36 38 39 39 38 38 39 39 39 38 38 38 37 37 38 39 39 40 41 42 41 41 40 40 41 42 43 43 43 42 43 44 45 46 47 47 47 48 50 50 51
23 25 26 26 25 25 26 28 29 28 27 25 24 23 21 19 16 14 15 15 16 20 22 24 24 24 26 29 30 29 28 28 26 22 22 25 27 28 28 28 30 30 31 32 32 33 35 36 37 37 36 36 37 38 38 37 37 38 38 38 39 39 39 40 41 41 41 40 40 40 40 40 41 42 42 42 42 43 45 46 47 47 47 48 48 49 50
19 19 21 21 22 22 23 24 25 25 24 23 23 22 20 19 16 12 11 10 12 18 22 24 23 21 23 28 29 28 29 28 25 20 19 22 25 25 26 27 28 29 30 30 30 31 33 34 34 33 33 35 37 38 38 38 37 38 39 39 39 39 39 40 41 41 41 41 40 40 41 41 40 40 40 41 41 42 43 44 45 46 46 46 46 47 48
16 16 16 18 19 20 21 22 23 23 23 22 21 20 20 19 17 14 12 9 10 15 16 17 21 22 23 26 29 29 29 27 24 19 16 17 20 21 23 24 25 27 27 27 27 29 29 30 30 31 32 35 37 39 39 39 39 39 39 40 40 40 39 39 41 41 40 40 40 40 41 41 41 40 39 39 39 40 41 42 43 44 45 45 45 45 47
15 14 14 15 16 17 19 21 21 21 21 20 19 18 18 17 16 15 16 14 12 13 13 13 18 21 22 24 28 29 27 24 21 18 15 15 16 18 20 20 21 22 22 22 24 24 24 25 27 30 33 35 37 38 38 39 40 40 40 40 40 40 40 40 41 41 40 40 40 40 40 41 41 40 38 38 38 39 40 41 42 43 44 44 45 45 46
14 13 14 14 15 16 17 18 19 19 20 20 19 18 16 14 14 14 17 19 17 15 13 11 12 17 22 25 27 28 27 22 18 17 18 17 15 16 17 17 17 18 18 18 20 21 22 24 27 31 34 35 36 36 37 38 39 40 40 41 41 41 40 40 40 41 40 39 39 40 39 40 41 41 39 38 38 39 40 40 40 41 42 43 45 45 45
11 12 12 13 13 14 15 16 17 18 19 20 19 17 16 13 12 11 12 16 16 14 12 9 11 16 20 22 24 26 25 20 17 17 17 16 15 14 14 15 15 16 16 17 20 22 24 26 30 33 35 35 35 35 35 37 38 39 40 41 41 42 41 40 40 40 40 39 39 38 39 40 42 42 41 39 38 38 38 38 38 39 40 42 43 44 44
9 10 11 11 12 13 14 16 17 17 17 17 17 16 15 14 13 11 8 9 9 7 8 8 10 16 18 18 20 23 21 16 15 16 14 14 14 14 13 13 14 15 14 15 19 23 26 29 31 33 34 35 34 33 33 34 36 37 38 39 41 41 41 40 39 39 39 39 38 38 39 41 42 41 41 40 38 36 36 36 37 38 40 41 42 42 44
8 9 11 12 12 12 13 13 14 13 13 14 13 12 12 12 14 13 9 7 7 5 6 8 11 16 16 14 16 19 16 12 12 13 13 12 13 13 13 13 13 14 14 14 19 24 27 30 31 33 34 34 33 32 31 31 33 35 36 37 39 40 40 41 40 39 38 38 39 39 41 42 40 39 39 40 39 37 37 37 38 39 40 41 42 43 44
8 10 12 12 12 12 11 10 10 10 11 10 9 9 10 11 15 16 11 6 8 8 9 11 12 13 12 13 15 16 12 10 10 11 11 11 12 12 13 13 13 14 13 13 18 23 27 29 31 32 33 32 31 30 30 30 31 32 34 35 37 39 40 41 41 39 39 39 41 41 41 40 38 38 38 38 38 38 38 37 38 38 38 39 40 41 43
7 9 10 11 11 11 11 10 9 8 9 9 8 8 10 12 15 17 16 9 7 11 11 13 13 12 11 13 15 15 12 11 11 10 8 9 11 12 12 12 14 14 12 12 16 22 26 29 30 31 31 30 29 28 29 29 30 31 32 34 37 38 40 41 41 40 41 40 40 40 39 38 37 37 37 37 37 38 38 37 37 37 37 37 38 39 40
6 7 8 8 10 11 12 11 9 8 8 7 6 5 7 11 14 15 16 14 8 11 13 13 13 12 11 12 13 12 11 10 10 9 7 7 10 12 11 11 13 14 13 13 16 22 26 28 30 30 30 29 29 28 28 28 29 31 32 34 36 39 41 41 40 40 41 41 40 40 40 39 37 36 35 36 37 37 38 38 38 37 37 36 36 37 37
3 5 6 7 8 10 12 12 11 9 8 7 5 5 6 10 13 13 13 13 10 11 13 12 12 12 11 10 10 10 9 9 8 6 5 5 7 10 11 11 12 14 14 13 15 21 26 28 29 30 29 28 28 27 27 27 27 29 32 34 36 39 41 42 41 40 40 41 41 41 40 39 37 35 35 36 37 37 38 39 38 37 37 37 36 35 35
3 4 4 5 7 8 10 12 12 11 10 9 9 9 9 10 11 11 11 10 10 11 12 12 11 10 9 9 9 9 9 9 8 6 4 4 5 7 9 10 11 13 14 14 15 18 23 26 28 29 28 28 27 26 25 25 23 24 28 33 36 39 42 44 44 43 41 40 40 41 40 38 37 37 37 36 36 36 37 37 35 34 36 37 36 36 35
5 3 3 3 5 6 8 10 11 11 11 12 12 11 11 11 10 11 11 10 10 11 11 10 10 9 8 8 9 9 10 9 9 8 7 6 5 5 6 9 11 12 14 15 15 15 18 22 25 27 27 26 26 25 25 24 21 20 23 28 34 39 44 46 46 45 43 42 41 41 42 41 40 39 38 38 37 36 35 33 31 32 34 36 37 37 37
7 5 4 2 2 4 6 7 8 9 10 11 11 11 11 11 10 10 10 10 10 12 11 10 9 9 9 9 9 10 10 10 10 10 10 9 8 6 5 7 9 12 13 15 15 15 14 15 18 22 25 25 25 24 24 23 21 20 21 25 31 38 44 47 47 46 45 44 43 44 44 43 41 40 39 38 37 35 32 31 32 33 34 35 36 37 38
10 8 6 4 1 2 3 4 5 7 8 9 9 10 10 10 9 9 9 9 9 11 11 10 9 9 9 9 9 9 10 11 11 11 9 8 9 8 7 6 7 9 11 13 14 15 14 12 13 16 20 23 24 24 24 24 23 22 23 25 29 35 42 46 47 48 47 45 45 44 43 40 39 38 36 36 35 34 34 34 36 37 37 36 36 36 37
13 11 9 7 4 1 2 3 4 5 6 7 8 8 9 9 9 8 7 7 8 9 9 8 9 9 9 9 9 9 10 12 13 13 11 8 10 10 7 6 6 7 8 10 12 14 14 13 13 14 16 19 22 24 26 27 27 26 26 26 28 33 38 42 45 46 46 46 44 40 37 35 35 34 33 33 33 33 33 35 36 36 36 36 36 37 37
15 14 12 11 8 5 3 3 3 4 5 6 6 7 7 7 7 7 6 6 6 7 7 6 7 8 8 9 9 9 10 12 14 15 14 13 13 11 8 7 7 7 8 10 12 14 14 13 14 14 15 16 19 23 26 29 30 29 28 28 28 30 33 37 40 42 43 44 42 38 35 34 32 30 30 30 31 31 31 32 33 34 34 33 34 35 36
15 16 15 14 13 10 7 3 3 4 5 5 5 5 5 5 5 5 4 5 6 7 7 7 7 7 8 8 7 8 9 12 14 15 15 15 14 13 11 10 9 9 9 10 11 12 13 13 14 14 14 14 15 18 23 27 29 30 30 29 29 30 31 33 34 35 37 38 37 35 33 32 31 30 30 30 30 30 30 30 30 30 31 31 31 32 34
14 16 17 16 15 14 12 9 5 2 3 4 4 3 4 4 4 3 3 3 5 5 6 7 7 7 7 7 7 8 9 10 12 14 14 14 13 14 14 14 13 12 12 12 11 11 12 13 13 13 14 14 13 15 18 23 27 29 29 30 31 31 30 30 31 32 33 34 35 34 33 32 32 31 31 30 30 30 29 28 27 26 26 27 29 30 32
14 15 17 18 17 16 16 14 10 7 4 1 2 2 2 2 3 2 1 2 3 3 4 5 5 5 7 8 8 9 10 11 12 12 11 11 12 14 15 15 15 15 15 14 13 12 12 13 13 14 14 14 14 15 16 18 21 24 25 26 28 31 30 29 29 30 32 33 34 34 34 33 32 31 31 30 30 29 28 27 26 24 22 23 24 25 27
16 15 16 18 19 18 17 17 15 12 9 6 3 1 1 1 2 2 1 2 2 2 3 4 4 4 6 8 10 10 9 10 10 10 9 10 10 12 14 15 15 16 17 16 15 14 14 14 14 14 14 15 15 16 15 15 17 20 21 20 22 26 29 30 30 30 31 32 33 33 33 33 32 31 30 29 30 29 27 26 25 23 21 20 20 20 22
17 16 16 17 20 20 19 19 17 15 13 11 8 6 4 3 3 3 2 2 3 3 3 4 4 4 5 6 8 9 10 10 9 8 8 8 8 9 11 13 14 15 16 15 15 15 15 15 15 15 15 15 15 15 15 15 16 18 19 18 17 18 21 25 27 28 29 31 32 33 32 31 30 28 27 27 28 28 27 27 26 25 24 24 23 23 23
18 18 17 17 19 21 21 21 19 17 15 14 12 10 7 5 5 4 3 3 3 3 4 4 5 5 5 5 6 7 9 10 10 9 7 7 7 7 9 11 12 13 14 14 14 15 16 16 15 15 16 16 16 15 15 15 16 17 18 18 18 18 19 20 22 23 24 24 26 28 29 28 28 28 27 27 26 26 26 26 26 26 26 26 26 26 25
18 19 18 17 17 19 21 21 20 18 17 15 14 13 10 8 7 6 4 3 3 3 4 5 5 6 6 6 6 7 8 10 10 9 9 8 7 7 8 9 10 11 12 13 14 15 16 16 16 17 16 16 16 16 15 15 15 17 18 18 18 18 19 19 21 22 21 21 21 22 23 24 25 26 27 26 25 24 24 24 23 23 23 24 24 24 23
18 19 19 19 17 17 19 20 20 18 17 16 16 14 12 10 9 7 6 5 4 4 5 6 6 6 7 7 7 8 9 10 10 10 11 10 9 8 8 8 8 9 11 12 12 13 14 15 16 17 16 16 15 16 16 16 16 16 16 17 17 17 17 18 19 21 21 22 22 21 20 20 21 22 23 24 24 23 23 23 22 22 21 20 21 21 21
19 19 19 20 19 17 18 19 19 18 17 17 16 16 14 12 10 9 8 7 6 6 5 6 6 7 7 8 8 9 9 11 11 11 12 12 11 11 10 10 10 10 11 11 12 12 12 14 15 15 15 15 15 15 16 17 17 17 16 16 16 17 17 17 18 19 20 21 21 21 19 19 19 20 20 21 21 22 23 24 24 23 23 22 22 22 22
20 20 19 20 20 18 17 18 19 18 17 16 17 16 14 13 12 11 10 9 7 7 6 6 7 7 7 8 8 9 9 10 11 11 12 12 13 13 13 13 13 13 12 12 12 13 13 14 15 16 16 16 16 16 16 17 17 18 18 18 18 18 18 19 19 19 20 20 20 20 20 19 20 20 19 19 19 20 21 22 23 24 24 24 24 24 24
18 20 20 20 20 20 18 18 19 19 17 16 17 16 14 14 14 13 11 10 9 8 7 7 7 7 8 8 8 8 8 8 8 9 10 11 12 13 14 14 14 15 15 14 14 14 15 16 17 17 18 18 19 19 19 20 20 20 20 21 20 20 20 20 21 21 21 21 21 21 21 21 21 21 21 20 21 21 22 23 23 24 25 25 26 26 27
16 19 21 21 20 20 20 19 19 19 18 17 16 15 15 16 15 14 12 11 10 9 8 8 7 7 8 8 8 7 7 7 7 7 8 9 10 11 12 13 13 13 14 14 15 15 15 16 17 18 19 19 20 21 22 22 23 23 23 24 23 23 22 23 23 24 24 23 23 22 23 23 22 22 22 22 23 23 24 24 24 25 26 26 27 27 28
15 17 20 21 21 20 21 20 20 20 20 19 17 16 16 17 16 14 13 12 11 10 9 9 8 8 8 8 8 7 6 6 6 6 6 7 7 8 8 9 10 10 10 12 12 13 14 14 15 16 17 18 19 20 21 22 22 23 24 24 25 25 25 25 26 26 25 24 23 23 24 23 23 23 23 23 23 23 24 24 25 25 26 27 27 28 28
15 16 18 21 21 21 21 21 21 21 21 21 19 17 17 17 16 15 14 13 12 11 10 10 9 9 9 10 9 8 7 7 7 6 5 6 6 7 6 6 7 8 8 9 9 9 9 10 10 11 12 12 13 14 15 16 18 19 21 22 23 25 26 27 28 28 27 25 24 24 24 24 24 24 24 23 23 24 24 25 25 26 27 27 28 28 29
15 16 17 19 22 22 21 22 22 22 21 21 20 19 19 18 17 16 15 14 13 12 11 11 10 9 10 11 11 10 9 8 7 6 5 5 6 6 6 6 6 6 6 6 6 6 6 6 6 7 7 7 7 7 7 8 9 10 12 15 17 19 21 23 25 26 26 25 24 25 25 24 24 24 24 24 24 24 24 24 24 25 26 26 27 27 28
15 16 16 18 21 22 22 22 22 23 22 22 21 21 20 19 18 17 16 15 14 13 12 12 12 11 11 13 13 12 11 10 8 7 6 5 5 6 7 7 6 6 6 5 5 5 4 4 4 4 4 4 4 4 3 3 2 3 4 5 7 9 11 13 15 17 19 21 22 24 24 23 23 23 23 22 21 20 20 20 21 22 23 24 25 26 26
14 16 16 17 20 22 23 23 23 23 23 23 22 22 21 20 19 18 17 15 14 14 14 14 14 12 12 13 15 14 13 12 10 9 8 7 6 7 7 7 7 7 6 6 5 5 5 4 4 3 3 4 5 5 4 2 1 1 1 2 2 3 4 5 6 7 9 11 13 15 15 16 17 18 17 17 16 16 16 17 18 20 21 22 23 23 23
14 15 15 16 19 22 24 24 23 23 23 24 24 23 22 21 20 19 18 17 15 15 15 15 15 14 13 14 16 16 15 14 12 11 10 9 8 8 8 7 7 7 7 6 6 6 6 6 5 4 4 5 6 6 5 4 3 3 3 3 3 4 4 4 5 5 7 8 10 11 12 13 13 13 13 13 14 14 14 15 15 15 15 16 17 17 18
13 14 15 16 18 21 23 25 24 23 23 24 24 24 22 22 21 21 19 18 17 17 17 17 17 16 16 15 16 17 17 16 15 14 13 11 10 9 9 8 8 7 7 6 5 5 6 6 6 6 6 6 7 7 7 6 5 5 4 4 5 5 6 6 7 7 8 10 11 12 13 14 14 14 13 13 12 12 11 11 10 10 10 11 12 13 14
12 14 14 15 16 19 23 25 25 24 24 24 25 25 24 23 22 22 21 20 20 20 19 18 18 18 17 16 15 17 18 18 17 16 14 13 11 10 10 9 9 8 7 6 6 6 6 6 6 6 6 6 6 6 6 6 4 3 3 3 4 5 6 7 7 8 9 10 12 13 14 15 15 15 15 13 12 11 10 9 9 8 9 10 11 12 13
11 12 13 14 15 18 21 24 25 26 25 24 25 25 25 25 24 24 24 24 23 22 21 19 18 18 18 17 16 16 17 18 18 17 16 14 13 12 11 10 10 9 8 8 8 8 8 7 7 6 6 6 5 4 4 4 3 3 3 3 4 5 6 7 7 7 7 7 8 9 10 11 13 14 14 14 13 12 11 10 9 8 9 10 11 12 13
10 11 12 13 14 16 19 22 24 26 26 26 25 26 27 27 27 27 26 25 24 24 22 20 19 18 18 18 17 16 16 16 17 18 17 15 14 13 12 11 11 10 10 9 9 10 9 9 8 7 6 5 5 4 4 4 4 4 4 5 6 6 6 6 6 6 6 6 6 6 7 8 10 12 13 14 14 13 12 11 10 10 10 11 12 12 13
10 10 11 12 13 15 17 20 22 25 27 28 27 27 27 28 29 28 27 26 25 25 24 23 21 20 19 18 17 16 15 15 16 17 17 17 16 15 14 13 12 12 11 11 11 12 11 10 9 8 7 6 6 6 5 5 5 5 6 6 6 6 6 7 7 7 6 6 6 6 7 8 9 11 12 13 13 13 12 12 11 11 12 12 13 13 13
12 11 11 11 12 13 15 17 20 23 27 29 29 28 28 28 28 29 28 28 27 27 26 25 24 22 21 19 18 16 15 15 15 15 15 17 19 18 16 15 14 13 12 13 14 14 13 11 10 10 9 8 8 8 7 7 7 7 7 7 7 7 8 8 8 8 8 7 7 7 7 7 8 9 10 11 11 11 11 11 11 12 13 13 14 14 14
15 13 12 12 11 12 14 16 18 22 25 27 29 29 29 29 28 28 28 28 29 28 28 27 26 25 23 21 19 18 17 17 16 14 14 16 18 18 17 17 16 15 15 16 18 17 14 12 12 11 10 10 10 10 9 9 9 8 8 8 7 7 7 7 7 7 7 7 7 7 7 8 8 9 9 9 10 10 11 11 11 12 13 14 14 14 14
16 15 14 13 12 12 13 15 17 20 23 26 28 30 31 30 29 28 28 28 29 29 29 29 28 27 26 24 22 21 21 20 19 17 16 15 16 16 17 18 18 17 18 20 20 18 15 14 13 13 12 11 11 11 11 11 10 10 9 9 8 8 7 7 7 6 6 7 7 7 7 8 9 10 10 10 10 10 11 11 12 13 13 14 14 15 15
17 16 16 15 14 14 14 15 16 18 21 23 26 30 32 32 31 29 28 28 28 29 30 30 30 29 28 27 25 25 24 23 22 21 19 18 17 16 16 17 18 19 21 23 22 20 17 16 16 15 14 13 13 12 12 12 12 11 11 11 10 9 9 8 8 8 7 7 7 7 7 8 9 9 10 11 11 12 12 12 12 13 13 14 15 16 16
18 18 17 16 16 15 15 15 16 17 19 21 24 28 31 33 33 31 29 28 28 29 30 31 31 31 30 29 29 28 28 27 26 24 23 22 21 20 18 17 17 19 22 24 24 22 20 19 18 18 17 16 15 15 14 14 13 13 12 12 11 11 11 10 10 10 9 9 9 9 9 9 9 9 9 9 10 11 12 13 14 14 14 15 15 16 17
19 19 19 18 17 16 16 16 16 16 17 19 21 25 29 32 33 32 31 30 30 29 30 31 32 32 31 31 31 31 31 30 29 28 26 25 24 23 22 21 20 21 22 23 23 23 23 22 22 21 21 20 19 18 17 17 16 15 14 13 13 12 12 12 12 12 12 11 11 11 11 11 10 9 8 8 9 10 12 13 15 16 16 17 17 17 18
19 20 21 20 19 17 16 16 16 16 16 17 19 22 26 29 31 32 32 32 31 31 31 31 31 31 31 30 31 31 32 32 31 30 29 28 27 27 26 25 25 24 23 23 23 23 23 24 24 25 24 23 23 22 20 20 19 18 17 16 15 14 13 13 13 13 13 13 14 13 13 12 11 11 10 10 10 12 12 13 14 15 16 18 18 19 20
Wind_Direction
38 41 43 44 48 57 63 67 69 69 67 69 81 95 103 109 114 118 119 114 105 92 79 79 85 92 110 133 146 149 148 150 154 160 167 171 175 182 185 186 187 189 193 197 198 200 202 202 201 199 198 198 199 202 203 203 205 207 206 207 208 207 206 207 209 210 209 210 210 209 210 212 212 213 215 215 217 218 219 222 226 228 231 235 238 241 242
55 56 58 66 72 74 74 75 76 77 77 78 83 91 98 104 107 107 101 89 73 63 68 81 91 104 127 143 146 142 140 145 152 157 162 167 176 181 184 187 188 190 194 197 199 201 202 203 203 202 199 198 199 202 203 202 204 207 207 208 210 209 206 206 209 210 208 209 209 207 209 212 212 212 213 215 217 218 219 220 223 226 230 233 237 240 242
63 63 70 78 78 73 71 71 72 73 74 73 70 68 67 69 75 80 78 64 52 55 67 79 88 107 133 147 146 143 142 144 147 150 158 168 176 180 183 187 189 192 195 197 200 202 203 204 204 203 200 198 200 203 203 203 203 205 205 208 212 212 209 208 210 211 211 210 210 209 209 212 213 212 213 215 217 218 219 221 223 226 229 231 234 238 240
63 65 72 78 74 67 64 60 56 56 56 58 60 61 60 61 62 72 78 72 69 71 72 79 97 123 144 150 146 142 140 141 142 147 160 170 175 179 182 185 189 192 195 197 200 202 204 205 204 203 200 198 200 203 204 204 203 203 203 205 211 212 209 209 212 214 214 213 213 213 212 214 216 215 215 216 217 219 220 222 225 228 230 232 234 237 239
62 61 65 70 69 64 58 53 50 50 50 52 57 61 67 71 73 88 96 90 90 93 91 98 116 135 145 144 142 139 137 137 137 145 161 170 175 179 181 184 189 192 195 198 199 201 205 206 204 203 199 198 201 203 204 203 203 204 203 203 208 211 209 207 209 213 214 213 213 213 212 214 217 218 218 218 219 220 221 224 226 228 230 232 235 238 240
59 57 54 57 60 57 53 50 48 49 49 49 50 51 56 64 74 96 114 107 107 112 107 107 116 128 137 139 138 135 134 133 134 146 161 166 172 179 183 186 190 193 196 197 198 201 204 204 203 200 197 198 203 205 205 203 203 205 205 204 206 210 209 208 208 211 213 213 212 213 212 213 215 217 218 220 221 222 223 226 228 230 232 234 236 239 241
55 55 48 44 46 44 40 39 38 40 41 39 40 40 41 49 63 89 114 116 123 134 127 110 111 123 133 137 136 136 135 134 140 155 160 158 166 174 181 187 191 195 196 196 198 202 203 202 198 195 196 199 203 206 206 204 204 206 206 206 207 208 208 207 207 209 211 212 212 213 213 213 214 215 216 218 221 223 225 227 229 231 234 236 237 239 241
49 52 47 38 34 32 33 36 36 35 33 32 35 40 41 44 54 79 107 111 112 137 144 122 116 126 135 138 140 141 138 136 147 157 152 154 162 166 173 183 189 192 194 193 197 201 200 196 192 192 196 200 203 206 207 206 206 206 206 207 208 208 207 206 207 208 209 211 212 213 213 214 215 216 216 216 218 221 223 225 228 231 233 235 237 238 239
47 49 50 42 35 33 35 38 37 36 38 39 41 45 48 51 54 74 107 114 113 127 141 140 134 135 138 142 145 146 142 141 152 154 149 157 163 159 166 175 180 184 184 184 191 194 191 186 186 192 198 200 203 206 207 207 208 207 208 208 209 209 208 206 206 207 208 209 211 213 213 214 216 217 216 216 217 220 222 223 225 229 232 235 237 238 240
53 54 56 53 47 44 44 43 40 42 47 49 52 52 50 52 57 69 104 120 121 121 120 132 155 152 143 145 152 153 147 144 154 158 152 156 160 158 163 169 173 176 177 183 188 186 183 182 185 192 198 200 201 204 207 209 209 208 209 209 209 209 208 206 206 206 207 208 210 212 213 213 215 216 217 217 219 221 223 224 225 228 231 233 236 239 241
59 61 62 57 50 45 47 48 45 46 51 55 60 60 55 50 49 54 86 119 130 125 98 104 152 159 148 144 154 158 150 141 151 160 157 154 158 160 162 165 167 166 170 185 189 185 183 184 186 191 196 198 200 201 205 209 211 210 210 210 212 211 207 205 205 205 207 208 209 211 214 214 215 217 218 218 219 221 224 225 226 228 230 232 235 238 240
55 57 55 50 44 39 40 45 47 49 55 58 58 58 53 43 35 40 70 121 145 142 102 99 137 156 154 148 153 157 151 139 145 156 158 156 158 162 164 163 161 161 167 180 185 185 185 185 187 190 193 197 199 200 203 209 212 213 212 212 214 213 209 205 204 203 206 208 209 212 216 218 217 217 219 220 220 221 223 224 226 228 230 233 235 237 240
47 52 51 45 43 39 38 45 51 53 56 56 49 41 35 27 28 36 54 108 154 150 119 109 125 145 156 159 157 153 146 139 140 148 158 161 161 165 170 168 161 162 171 179 181 184 185 185 188 191 193 197 200 200 204 210 214 216 215 213 214 215 212 209 205 203 206 209 211 213 218 220 219 218 219 221 223 224 224 225 227 229 232 235 237 238 241
36 49 50 46 44 44 44 49 56 58 61 63 58 44 30 25 28 34 42 64 139 157 137 122 124 129 141 158 163 156 145 137 133 131 143 166 174 175 173 172 170 168 171 177 181 184 186 188 190 192 195 199 201 202 206 212 217 220 218 216 215 214 213 211 208 206 208 211 214 216 219 220 220 221 221 222 224 226 227 227 228 229 232 236 239 241 243
22 37 44 45 46 48 50 54 58 58 56 58 60 51 34 28 29 34 42 52 96 150 148 136 132 129 132 149 163 165 157 146 138 129 127 153 180 186 180 177 180 179 176 178 183 186 187 189 191 193 197 200 200 203 208 212 218 221 220 218 215 213 212 211 210 210 212 214 216 218 220 222 223 224 224 224 226 227 228 228 228 229 232 236 240 244 247
355 20 36 45 49 52 54 56 62 62 58 60 66 57 42 38 36 39 47 54 79 128 145 147 145 140 138 143 155 169 175 172 165 154 134 135 167 188 191 188 187 188 187 184 185 189 191 191 192 194 197 200 201 204 208 212 219 224 224 220 216 212 210 209 209 211 214 217 219 221 222 224 225 226 227 228 229 229 230 229 227 227 232 236 240 244 247
295 344 15 39 51 57 60 62 66 71 72 77 80 70 59 56 50 49 60 74 90 112 132 147 154 155 155 156 159 167 179 188 194 190 174 158 162 179 197 205 201 198 197 194 192 193 195 196 197 197 199 203 205 208 210 213 219 225 224 221 217 212 209 208 209 211 214 217 221 224 225 226 226 226 228 230 233 234 234 231 227 228 233 238 240 243 246
257 289 332 15 46 59 66 68 71 78 82 82 82 79 74 69 60 56 67 89 106 112 120 134 147 157 166 173 176 178 182 191 198 194 190 192 188 182 198 215 215 211 207 205 202 198 198 202 204 205 207 209 211 215 217 218 222 225 221 218 216 212 209 209 210 213 216 218 221 224 225 227 229 229 230 233 237 238 236 233 232 233 236 239 241 244 246
242 251 278 319 32 64 76 80 81 84 87 85 83 84 83 79 74 68 66 79 105 118 120 124 136 147 158 167 175 181 184 187 189 191 193 196 198 200 208 217 218 217 215 212 209 205 205 210 213 214 217 219 219 221 222 224 229 229 223 221 220 216 213 212 212 214 218 221 224 227 228 230 233 235 236 239 241 243 242 243 244 244 243 244 244 246 247
238 235 241 258 302 73 94 102 100 95 93 91 88 87 87 86 87 84 75 75 96 116 123 129 137 144 152 157 159 167 174 177 179 181 185 197 207 212 214 210 208 214 219 218 215 213 215 220 220 218 221 224 226 226 226 226 230 231 227 226 225 222 220 218 217 218 220 224 228 231 234 237 241 244 247 249 251 252 253 252 251 250 249 247 246 246 247
236 232 228 233 238 187 134 128 120 108 99 95 91 89 89 89 89 91 91 90 98 109 119 131 141 143 145 149 149 153 162 169 170 165 165 191 213 212 206 200 192 198 208 208 207 207 210 214 216 214 217 222 226 228 228 228 228 230 231 230 227 225 225 225 225 226 226 227 231 235 240 245 250 253 255 255 254 253 253 252 250 249 247 245 244 243 243
234 231 226 226 227 213 173 140 126 114 100 92 88 86 86 88 88 90 98 107 113 116 121 132 144 146 146 149 151 152 157 165 168 166 169 188 203 203 199 197 193 192 195 195 196 200 206 213 218 218 220 223 224 227 230 230 229 230 232 234 233 232 230 231 233 233 232 233 236 240 244 248 252 252 251 252 252 252 251 250 249 248 246 244 243 242 241
233 232 228 224 223 222 213 187 138 113 98 88 84 85 85 86 86 89 100 115 120 128 136 146 156 160 157 157 159 158 160 166 170 174 182 192 198 199 199 201 200 196 194 196 199 202 207 215 221 223 225 225 224 224 227 228 230 231 232 235 239 240 237 235 235 236 235 235 237 241 245 247 248 248 248 250 253 253 251 250 250 248 246 244 242 241 239
233 233 231 226 223 224 226 224 213 165 111 90 80 83 87 88 88 91 113 123 118 126 140 150 161 171 174 174 169 161 164 170 173 180 190 198 203 204 203 203 205 203 201 205 210 211 210 211 215 220 224 226 226 224 225 226 228 230 233 237 239 238 237 235 233 234 235 236 237 242 246 247 247 248 248 250 252 252 251 250 249 246 243 241 240 239 238
235 236 234 229 224 223 227 230 231 231 223 170 92 86 93 102 104 104 125 142 132 131 139 139 147 169 181 182 176 168 168 174 179 186 197 207 211 212 208 206 208 209 209 211 216 219 218 215 216 222 227 227 226 226 225 224 222 224 229 232 232 231 230 230 230 231 234 236 239 242 245 246 247 247 247 247 247 248 248 248 245 241 239 238 238 236 236
233 237 238 234 228 224 225 229 232 236 239 240 241 229 189 178 165 149 156 181 181 175 166 152 146 161 175 179 182 184 187 189 191 197 205 210 213 213 211 210 212 215 216 217 218 220 222 223 226 230 230 229 228 227 226 223 219 219 222 224 225 226 227 228 230 233 236 239 241 241 242 244 244 244 244 243 243 243 243 242 239 235 234 234 234 234 236
232 235 239 238 233 227 225 226 228 231 236 240 246 248 243 230 214 197 186 190 198 211 209 188 176 177 179 182 189 196 201 206 209 211 209 205 204 205 207 210 212 216 221 223 222 224 226 228 232 233 230 227 229 229 228 225 221 220 223 225 226 227 226 225 226 230 233 235 235 234 234 236 237 237 237 238 238 238 237 235 233 232 232 234 238 242 243
232 232 236 240 238 232 228 227 226 228 233 237 241 244 242 233 219 213 210 203 203 219 230 217 204 200 199 201 205 206 206 208 211 216 218 214 208 202 202 205 208 212 215 217 219 222 225 226 226 226 224 223 225 227 226 224 221 221 225 229 231 231 228 224 223 225 227 229 228 228 230 232 233 235 237 238 237 236 235 234 233 233 235 237 241 244 243
233 232 233 238 240 237 233 230 229 230 232 234 234 235 233 227 220 217 220 220 216 226 236 232 225 221 218 217 218 219 218 216 215 218 225 228 225 217 208 207 211 213 213 213 215 217 219 218 215 214 215 218 221 221 220 220 222 223 224 226 227 227 227 227 227 227 228 229 230 232 234 237 238 240 241 241 239 237 237 236 236 235 236 237 238 239 238
235 234 232 234 239 239 236 233 231 230 231 232 231 228 223 218 215 217 223 229 228 233 241 242 237 232 229 228 227 225 226 227 225 224 228 231 231 227 219 215 217 216 212 212 213 214 217 217 213 209 210 212 214 215 215 217 220 222 222 222 221 221 221 223 225 226 226 226 227 230 232 235 237 238 238 238 235 233 231 230 230 231 232 233 234 234 234
236 236 233 233 235 237 236 233 229 227 228 229 230 226 218 211 210 214 220 226 228 228 238 247 246 241 235 233 232 232 232 232 229 228 230 233 233 232 227 223 222 220 216 215 215 214 218 222 221 218 217 217 217 218 220 223 224 225 223 222 222 222 222 223 224 226 227 228 228 230 231 231 231 231 232 232 232 231 230 229 229 230 231 234 235 236 236
236 235 235 233 232 233 234 230 227 226 226 227 228 225 216 207 207 212 217 224 228 227 231 241 249 250 246 238 233 232 232 231 230 230 232 234 234 234 231 228 227 226 225 225 224 223 222 225 227 228 229 230 230 231 233 235 236 235 233 231 230 229 229 229 229 230 230 231 231 231 232 233 233 233 232 232 232 232 233 234 234 235 236 237 239 240 241
237 234 234 234 232 231 231 228 227 226 226 226 226 223 215 209 208 210 215 223 228 228 230 235 243 248 246 237 230 227 225 225 226 230 233 233 233 233 233 231 230 230 230 231 233 233 231 231 232 234 235 236 237 238 240 241 243 244 244 244 243 242 241 241 240 239 239 238 238 237 236 236 237 238 238 238 238 238 239 240 241 242 243 243 244 245 245
245 236 233 233 233 231 229 228 228 228 228 227 225 219 214 212 211 210 213 220 225 228 227 229 234 240 237 227 220 218 219 219 220 224 228 228 228 229 229 229 229 230 231 232 234 235 236 236 238 239 240 240 241 243 244 244 245 246 247 249 249 248 248 246 245 244 243 242 241 241 240 240 239 238 238 238 239 240 241 243 243 244 245 245 245 245 245
256 242 234 232 233 232 230 229 230 230 230 230 227 221 217 216 214 213 216 221 224 226 225 223 226 230 226 219 213 211 211 208 205 209 215 216 217 220 222 223 223 224 226 228 231 233 235 237 239 242 244 245 246 248 249 249 249 248 248 248 247 246 245 244 244 243 243 241 240 239 240 239 239 239 239 239 240 241 241 242 243 244 244 244 244 244 243
262 253 240 233 231 232 231 229 230 231 232 231 229 225 224 222 218 218 220 223 225 227 225 221 221 221 217 212 209 206 203 199 193 193 201 208 209 208 209 214 217 216 216 221 224 225 228 232 234 236 240 242 245 248 250 251 251 251 250 249 247 246 244 243 243 243 242 240 238 239 239 239 239 240 241 242 243 244 244 245 245 245 245 245 245 244 243
264 260 248 236 230 230 231 230 229 231 233 233 231 229 229 227 224 223 223 224 225 226 224 220 218 216 212 210 209 205 202 201 194 186 189 205 211 205 197 201 210 209 204 205 207 205 206 213 216 217 223 231 235 238 239 240 243 246 248 249 249 248 246 245 245 244 243 239 236 236 238 239 240 241 243 243 243 244 244 243 243 243 243 243 243 243 242
264 262 256 242 233 229 230 230 229 230 232 233 233 231 231 230 229 228 227 225 224 224 222 219 217 215 210 209 208 206 205 204 201 192 188 198 211 210 198 193 199 202 192 187 194 198 196 195 194 196 206 214 206 187 169 168 189 220 239 246 249 249 247 245 244 243 241 239 238 238 238 238 239 239 238 237 237 237 238 240 242 244 245 245 244 244 243
263 262 259 249 238 231 230 230 230 229 230 232 233 233 232 231 231 231 230 227 224 223 220 218 216 214 211 208 207 207 207 206 205 201 197 198 210 218 209 196 195 203 200 191 194 204 205 198 193 196 206 202 187 173 163 166 193 239 246 242 241 237 233 232 231 229 231 234 235 233 231 231 232 232 230 229 229 233 238 244 247 248 247 245 243 242 241
263 262 260 253 243 235 231 231 231 230 229 230 232 233 232 231 231 231 230 228 226 224 222 219 216 214 213 210 209 209 209 208 206 205 205 204 207 217 217 203 196 204 205 197 195 203 207 208 210 218 222 211 200 200 210 230 253 260 252 240 234 228 223 220 216 213 214 215 213 209 208 211 216 223 228 231 234 238 245 250 249 245 239 233 228 227 227
262 261 259 254 247 239 235 232 231 231 230 230 232 233 232 231 230 230 230 229 228 226 224 220 216 214 215 213 210 210 212 212 209 209 210 208 206 211 215 209 203 203 203 197 195 200 207 212 219 227 232 230 227 230 237 242 246 247 242 234 231 232 234 236 236 235 233 231 227 223 220 219 222 227 231 232 234 241 247 248 240 225 210 203 201 203 207
261 259 258 255 249 243 238 234 232 232 231 231 231 232 231 231 230 230 229 228 228 228 226 222 218 218 218 217 214 214 215 215 214 213 212 211 210 211 213 212 210 207 204 200 200 200 201 201 204 210 217 222 224 229 232 229 220 215 221 230 236 239 241 242 242 241 242 241 238 233 230 228 228 229 227 223 223 230 235 233 224 209 196 190 190 193 197
263 260 259 256 251 246 241 236 234 232 232 232 232 232 231 230 230 229 228 227 228 229 228 225 221 221 221 220 219 219 220 219 219 218 216 214 215 216 216 216 215 212 208 203 202 202 201 198 197 198 202 204 203 204 211 212 203 199 212 226 232 234 233 230 227 224 224 225 223 219 217 218 221 221 219 216 215 218 221 220 216 207 196 191 192 195 197
269 265 261 258 255 249 243 239 235 233 232 232 232 232 231 230 229 229 229 230 230 231 231 229 226 224 224 224 224 225 225 225 225 223 220 218 219 220 220 218 217 216 212 208 206 205 204 202 200 198 198 201 200 198 201 209 210 210 213 218 220 221 222 222 219 214 208 204 199 195 194 201 208 213 214 215 216 216 217 217 214 209 203 200 199 199 200
271 271 266 263 259 253 247 242 237 234 232 232 232 233 233 232 231 231 231 232 232 233 233 233 232 229 227 226 227 228 229 230 231 230 226 223 223 223 222 221 220 218 217 216 216 214 210 207 206 204 201 203 207 207 208 213 215 213 212 216 221 224 225 224 222 218 211 205 200 195 192 196 201 205 208 212 213 214 214 214 212 211 210 209 209 208 208
266 270 271 269 264 258 251 245 239 235 233 232 232 234 235 235 234 233 232 232 234 234 235 235 235 233 231 228 227 228 230 232 233 233 229 228 228 227 224 224 224 221 220 223 226 224 216 213 215 216 213 211 216 220 223 225 226 225 225 226 230 235 238 236 231 226 221 215 209 204 201 201 202 202 203 205 206 206 207 208 210 211 212 213 213 213 211
259 263 267 269 268 264 258 250 243 239 236 233 232 233 235 236 236 235 233 232 233 235 236 236 236 237 236 232 230 230 231 232 233 232 230 231 233 232 229 227 227 225 224 229 233 231 225 221 223 224 224 223 225 229 232 233 233 233 233 234 235 239 242 242 238 235 231 226 220 215 213 214 215 213 212 211 209 208 207 208 210 213 215 216 215 214 211
256 258 261 264 266 266 264 258 250 244 240 235 232 233 234 236 236 236 234 233 233 235 236 237 238 238 238 237 235 235 235 235 235 235 233 234 236 236 234 233 232 230 230 233 236 236 233 231 230 230 230 230 231 233 235 237 238 237 236 237 237 238 240 241 240 239 237 234 230 226 223 224 226 225 223 221 220 218 217 215 215 215 217 219 219 218 215
254 254 256 259 261 263 265 264 259 252 246 240 235 234 234 235 236 236 235 234 234 234 235 237 237 238 239 239 239 239 239 239 239 238 237 237 238 239 238 238 237 236 236 238 240 239 237 237 237 236 235 234 235 235 235 236 237 238 237 237 237 237 238 240 240 240 240 240 240 239 237 236 234 232 229 228 227 226 226 225 224 222 222 222 222 222 221
251 252 253 254 256 259 262 265 264 261 254 247 240 237 236 236 236 235 235 235 234 234 235 236 237 237 238 238 239 241 242 242 242 242 242 242 243 243 242 242 242 241 241 241 242 241 239 238 238 239 239 237 236 237 237 238 238 239 240 241 240 240 240 241 240 240 241 241 241 243 243 243 242 241 238 236 234 234 233 233 232 231 229 228 227 227 227
249 249 250 251 253 256 259 263 266 267 263 255 247 242 240 238 236 235 234 235 234 234 235 236 237 238 238 238 239 241 242 243 244 244 245 245 246 246 245 244 244 244 245 246 246 245 242 239 238 239 240 239 238 237 237 238 241 243 244 246 246 245 245 245 244 243 242 241 242 243 245 247 248 249 245 240 237 236 236 236 236 236 235 234 233 232 231
247 247 247 249 251 254 256 259 262 264 264 261 255 249 245 242 240 237 235 235 235 235 235 237 238 239 240 240 240 241 243 244 245 246 247 247 247 246 246 245 244 245 247 250 251 249 247 243 241 241 241 241 240 239 238 238 240 242 245 248 248 248 247 247 247 246 245 244 244 245 247 249 250 249 246 241 239 238 239 239 240 239 239 238 237 237 237